SWA2980 PHLI-PHNL

Flight info

Callsign SWA2980
Flight time 0h 28m
Altitude 15000
Route KLANI KLANI4
Aircraft B738/M-SDE2E3FGHIRWXY/LB1

Departure

Time 2026-05-07 19:59
Airport Lihue Airport (PHLI)

Arrival

Time 2026-05-07 20:28
Airport Daniel K. Inouye International Airport (PHNL)
Time Latitude Longitude Altitude Speed Heading
2026-05-07 19:41 21.97792 -159.34809 152 ft 0 kts 314°
2026-05-07 19:53 21.97784 -159.34799 152 ft 4 kts 307°
2026-05-07 19:53 21.97772 -159.34774 152 ft 4 kts 279°
2026-05-07 19:53 21.97772 -159.34746 152 ft 4 kts 252°
2026-05-07 19:54 21.97784 -159.34721 152 ft 4 kts 230°
2026-05-07 19:54 21.97790 -159.34714 152 ft 0 kts 225°
2026-05-07 19:56 21.97788 -159.34716 152 ft 2 kts 225°
2026-05-07 19:56 21.97755 -159.34752 152 ft 13 kts 225°
2026-05-07 19:56 21.97668 -159.34845 152 ft 18 kts 225°
2026-05-07 19:57 21.97597 -159.34878 153 ft 9 kts 142°
2026-05-07 19:57 21.97546 -159.34825 153 ft 12 kts 137°
2026-05-07 19:57 21.97495 -159.34836 153 ft 10 kts 220°
2026-05-07 19:57 21.97427 -159.34906 152 ft 17 kts 224°
2026-05-07 19:58 21.97342 -159.34921 151 ft 11 kts 143°
2026-05-07 19:58 21.97315 -159.34861 151 ft 8 kts 53°
2026-05-07 19:58 21.97368 -159.34803 151 ft 25 kts 45°
2026-05-07 19:58 21.97686 -159.34462 137 ft 104 kts 45°
2026-05-07 19:59 21.98343 -159.33739 205 ft 157 kts 46°
2026-05-07 19:59 21.99060 -159.32912 1117 ft 149 kts 56°
2026-05-07 19:59 21.99278 -159.31776 1692 ft 170 kts 93°
2026-05-07 19:59 21.98940 -159.30431 2112 ft 198 kts 114°
2026-05-07 20:00 21.98010 -159.29280 2755 ft 213 kts 144°
2026-05-07 20:00 21.96603 -159.28710 3330 ft 223 kts 167°
2026-05-07 20:00 21.95035 -159.28266 3757 ft 248 kts 166°
2026-05-07 20:00 21.93282 -159.27722 4163 ft 271 kts 163°
2026-05-07 20:01 21.91669 -159.26687 5129 ft 276 kts 137°
2026-05-07 20:01 21.90551 -159.24993 5979 ft 281 kts 121°
2026-05-07 20:01 21.89585 -159.23132 6763 ft 288 kts 120°
2026-05-07 20:01 21.88621 -159.21219 7692 ft 292 kts 120°
2026-05-07 20:02 21.87644 -159.19294 8612 ft 294 kts 120°
2026-05-07 20:02 21.86647 -159.17348 9437 ft 300 kts 120°
2026-05-07 20:02 21.85619 -159.15351 9936 ft 307 kts 120°
2026-05-07 20:02 21.84581 -159.13341 10380 ft 308 kts 121°
2026-05-07 20:03 21.83531 -159.11314 10578 ft 310 kts 121°
2026-05-07 20:03 21.82483 -159.09294 10784 ft 308 kts 120°
2026-05-07 20:03 21.81441 -159.07287 10970 ft 309 kts 121°
2026-05-07 20:03 21.80340 -159.05171 11014 ft 340 kts 120°
2026-05-07 20:04 21.79136 -159.02863 11020 ft 368 kts 121°
2026-05-07 20:04 21.77798 -159.00410 11017 ft 391 kts 122°
2026-05-07 20:04 21.76346 -158.97848 11014 ft 408 kts 123°
2026-05-07 20:04 21.74845 -158.95227 11003 ft 412 kts 123°
2026-05-07 20:05 21.73357 -158.92626 10986 ft 406 kts 122°
2026-05-07 20:05 21.71891 -158.90053 10979 ft 396 kts 122°
2026-05-07 20:05 21.70494 -158.87592 10977 ft 375 kts 122°
2026-05-07 20:05 21.69176 -158.85266 10975 ft 354 kts 123°
2026-05-07 20:06 21.67930 -158.83064 10975 ft 336 kts 123°
2026-05-07 20:06 21.66743 -158.80969 10974 ft 320 kts 123°
2026-05-07 20:06 21.65612 -158.78974 10972 ft 309 kts 123°
2026-05-07 20:06 21.64490 -158.76999 10987 ft 308 kts 123°
2026-05-07 20:07 21.63375 -158.75036 10991 ft 309 kts 123°
2026-05-07 20:07 21.62252 -158.73060 10999 ft 311 kts 123°
2026-05-07 20:07 21.61122 -158.71072 10992 ft 312 kts 123°
2026-05-07 20:07 21.59992 -158.69085 10994 ft 310 kts 123°
2026-05-07 20:08 21.58875 -158.67117 10984 ft 306 kts 123°
2026-05-07 20:08 21.57768 -158.65168 10854 ft 307 kts 123°
2026-05-07 20:08 21.56652 -158.63205 10635 ft 309 kts 123°
2026-05-07 20:08 21.55529 -158.61234 10332 ft 309 kts 123°
2026-05-07 20:09 21.54406 -158.59276 10012 ft 307 kts 124°
2026-05-07 20:09 21.53266 -158.57337 9656 ft 306 kts 124°
2026-05-07 20:09 21.52127 -158.55410 9307 ft 305 kts 124°
2026-05-07 20:10 21.49870 -158.51595 8682 ft 301 kts 123°
2026-05-07 20:10 21.48753 -158.49700 8360 ft 300 kts 123°
2026-05-07 20:10 21.47643 -158.47815 8210 ft 296 kts 123°
2026-05-07 20:10 21.46546 -158.45954 8056 ft 293 kts 123°
2026-05-07 20:11 21.45466 -158.44122 7792 ft 289 kts 123°
2026-05-07 20:11 21.44753 -158.42918 7588 ft 288 kts 124°
2026-05-07 20:11 21.43324 -158.40504 7194 ft 285 kts 123°
2026-05-07 20:11 21.42621 -158.39317 6997 ft 284 kts 123°
2026-05-07 20:12 21.41565 -158.37533 6696 ft 282 kts 123°
2026-05-07 20:12 21.40513 -158.35756 6400 ft 281 kts 123°
2026-05-07 20:12 21.39466 -158.33988 6084 ft 281 kts 123°
2026-05-07 20:12 21.38416 -158.32216 5756 ft 281 kts 123°
2026-05-07 20:13 21.37374 -158.30457 5450 ft 279 kts 123°
2026-05-07 20:13 21.36343 -158.28704 5146 ft 276 kts 122°
2026-05-07 20:13 21.35341 -158.26953 4855 ft 274 kts 121°
2026-05-07 20:13 21.34349 -158.25213 4559 ft 272 kts 121°
2026-05-07 20:14 21.33368 -158.23501 4243 ft 265 kts 121°
2026-05-07 20:14 21.32551 -158.21778 3953 ft 255 kts 102°
2026-05-07 20:14 21.32508 -158.19945 3778 ft 240 kts 85°
2026-05-07 20:14 21.32545 -158.18180 3563 ft 234 kts 88°
2026-05-07 20:15 21.32543 -158.16455 3342 ft 230 kts 88°
2026-05-07 20:15 21.32539 -158.14777 3220 ft 219 kts 88°
2026-05-07 20:15 21.32536 -158.13189 3055 ft 207 kts 86°
2026-05-07 20:15 21.32535 -158.11696 2958 ft 195 kts 88°
2026-05-07 20:16 21.32535 -158.10268 2857 ft 190 kts 88°
2026-05-07 20:16 21.32545 -158.08818 2641 ft 199 kts 86°
2026-05-07 20:16 21.32540 -158.07314 2364 ft 206 kts 92°
2026-05-07 20:16 21.32307 -158.05821 2243 ft 201 kts 89°
2026-05-07 20:17 21.32474 -158.04392 2282 ft 182 kts 71°
2026-05-07 20:17 21.32769 -158.03155 2377 ft 160 kts 75°
2026-05-07 20:17 21.32965 -158.02029 2481 ft 153 kts 77°
2026-05-07 20:17 21.32889 -158.00841 2535 ft 178 kts 109°
2026-05-07 20:18 21.31952 -157.99767 2918 ft 213 kts 148°
2026-05-07 20:18 21.30432 -157.99378 3154 ft 244 kts 182°
2026-05-07 20:18 21.28791 -157.99921 3372 ft 253 kts 213°
2026-05-07 20:18 21.27619 -158.01254 3551 ft 244 kts 246°
2026-05-07 20:19 21.27217 -158.02975 3797 ft 238 kts 268°
2026-05-07 20:19 21.27098 -158.04745 3997 ft 238 kts 269°
2026-05-07 20:19 21.27005 -158.06532 4000 ft 241 kts 269°
2026-05-07 20:19 21.26924 -158.08330 3919 ft 244 kts 269°
2026-05-07 20:20 21.26672 -158.10142 3662 ft 246 kts 258°
2026-05-07 20:20 21.26291 -158.11919 3441 ft 245 kts 259°
2026-05-07 20:20 21.25915 -158.13695 3193 ft 244 kts 258°
2026-05-07 20:20 21.25569 -158.15457 3037 ft 238 kts 270°
2026-05-07 20:21 21.25898 -158.17123 2897 ft 226 kts 304°
2026-05-07 20:21 21.26964 -158.18250 2763 ft 211 kts 338°
2026-05-07 20:21 21.28351 -158.18497 2628 ft 200 kts 12°
2026-05-07 20:21 21.29431 -158.17941 2534 ft 200 kts 43°
2026-05-07 20:22 21.29709 -158.17611 2498 ft 199 kts 53°
2026-05-07 20:22 21.30283 -158.16266 2390 ft 199 kts 68°
2026-05-07 20:22 21.30569 -158.15399 2323 ft 203 kts 69°
2026-05-07 20:22 21.31033 -158.13980 2228 ft 198 kts 69°
2026-05-07 20:23 21.31249 -158.13296 2249 ft 192 kts 69°
2026-05-07 20:23 21.31686 -158.11970 2204 ft 185 kts 69°
2026-05-07 20:23 21.32086 -158.10686 2195 ft 178 kts 70°
2026-05-07 20:23 21.32440 -158.09469 2191 ft 168 kts 74°
2026-05-07 20:24 21.32532 -158.08218 2214 ft 170 kts 87°
2026-05-07 20:24 21.32535 -158.06954 2203 ft 167 kts 86°
2026-05-07 20:24 21.32531 -158.05724 2081 ft 161 kts 87°
2026-05-07 20:24 21.32530 -158.04529 1872 ft 155 kts 86°
2026-05-07 20:25 21.32527 -158.03438 1683 ft 139 kts 85°
2026-05-07 20:25 21.32528 -158.02443 1494 ft 135 kts 87°
2026-05-07 20:25 21.32525 -158.01428 1326 ft 135 kts 83°
2026-05-07 20:25 21.32528 -158.00399 1173 ft 144 kts 85°
2026-05-07 20:26 21.32527 -157.99319 947 ft 145 kts 88°
2026-05-07 20:26 21.32520 -157.98245 804 ft 143 kts 88°
2026-05-07 20:26 21.32526 -157.97201 586 ft 139 kts 87°
2026-05-07 20:26 21.32526 -157.96161 389 ft 140 kts 88°
2026-05-07 20:27 21.32528 -157.95134 230 ft 135 kts 88°
2026-05-07 20:27 21.32526 -157.94120 40 ft 136 kts 88°
2026-05-07 20:27 21.32525 -157.93198 24 ft 105 kts 88°
2026-05-07 20:27 21.32527 -157.92577 23 ft 62 kts 90°
2026-05-07 20:28 21.32538 -157.92306 26 ft 21 kts 64°
2026-05-07 20:28 21.32604 -157.92181 23 ft 18 kts 59°
2026-05-07 20:28 21.32665 -157.92064 25 ft 18 kts 61°
2026-05-07 20:28 21.32722 -157.91962 25 ft 13 kts 59°
2026-05-07 20:29 21.32803 -157.91924 24 ft 13 kts 12°
2026-05-07 20:29 21.32888 -157.91909 26 ft 10 kts
2026-05-07 20:29 21.32925 -157.91902 23 ft 0 kts 11°
2026-05-07 20:30 21.32927 -157.91902 23 ft 1 kts
2026-05-07 20:30 21.32944 -157.91919 24 ft 6 kts 294°
2026-05-07 20:31 21.32951 -157.91958 24 ft 2 kts 278°
2026-05-07 20:31 21.32951 -157.91959 24 ft 0 kts 278°